Regional Weather Roundup
Issued by NWS

Home | Current Version | Previous Version | Graphics & Text | Print | Product List | Glossary On
Versions: 1 2 3 4 5 6 7 8 9 10 11 12 13 14 15 16 17 18 19 20 21 22 23 24 25 26 27 28 29 30 31 32 33 34 35 36 37 38 39 40 41 42 43 44 45 46 47 48 49 50
000
ASUS43 KMKX 301100
RWRWI

WISCONSIN REGIONAL WEATHER ROUNDUP
NATIONAL WEATHER SERVICE MILWAUKEE/SULLIVAN WI
500 AM CST FRI JAN 30 2015

NOTE: "FAIR" INDICATES FEW OR NO CLOUDS BELOW 12,000 FEET WITH NO
SIGNIFICANT WEATHER AND/OR OBSTRUCTIONS TO VISIBILITY.

WIZ001-002-006>008-014>016-023>028-301200-
NORTHWEST WISCONSIN

CITY           SKY/WX    TMP DP  RH WIND       PRES   REMARKS
SUPERIOR ARPT  PTCLDY     1  -3  80 CALM      30.53F
ASHLAND        CLOUDY    11   4  73 W6        30.50S WCI   1
HAYWARD        PTCLDY    -1  -5  82 CALM      30.47F
SIREN          PTCLDY     0  -4  85 CALM      30.52S
CUMBERLAND     PTCLDY     1  -4  78 CALM      30.48F
RICE LAKE      PTCLDY     3   0  87 N3        30.51F
CHETEK         PTCLDY     1  -2  88 CALM      30.50F
LADYSMITH      FLURRIES   8   3  79 W5        30.49S WCI   0
EAU CLAIRE     NOT AVBL
MENOMONIE      PTCLDY     7   1  75 W5        30.53F WCI  -1
NEW RICHMOND   PTCLDY     4   0  86 CALM      30.52F
OSCEOLA        PTCLDY     6   2  86 CALM      30.56F
$$

WIZ003>005-009-010-017-018-301200-
NORTH CENTRAL WISCONSIN

CITY           SKY/WX    TMP DP  RH WIND       PRES   REMARKS
MANITOWISH WTR CLOUDY    10   3  76 NW7       30.40S WCI  -2
ARBOR VITAE    CLOUDY    12   5  74 NW5       30.40S WCI   4
WOODRUFF       CLOUDY    12   5  74 NW5       30.40S WCI   4
RHINELANDER    CLOUDY    11   3  70 NW5       30.39S WCI   3
EAGLE RIVER    CLOUDY    10   2  71 N9        30.39S WCI  -4
LAND O LAKES   CLOUDY    10   4  77 NW6       30.39S WCI   0
PHILLIPS       CLOUDY    10   3  72 N5        30.42S WCI   2
TOMAHAWK       CLOUDY    12   4  72 CALM      30.42S
MEDFORD        CLOUDY    10   4  77 NW6       30.42F WCI   0
MERRILL        CLOUDY    13   4  67 N3        30.43S
$$

WIZ029-030-035-036-043>047-301200-
CENTRAL WISCONSIN

CITY           SKY/WX    TMP DP  RH WIND       PRES   REMARKS
WAUSAU         CLOUDY    14   4  64 NW7       30.43R WCI   4
MOSINEE        CLOUDY    12   5  73 NW7       30.44S WCI   2
MARSHFIELD     MOCLDY     9   2  73 NW8       30.45S WCI  -3
STEVENS POINT  CLOUDY    13   2  62 NW7       30.45S WCI   3
WAUPACA        CLOUDY    19   7  57 NW6       30.46R WCI  11
WAUTOMA        NOT AVBL
WISC RAPIDS    CLOUDY    15   4  61 NW8       30.47S WCI   4
CAMP DOUGLAS   NOT AVBL
$$

WIZ011>013-019>022-031-037>040-048>050-301200-
NORTHEAST WISCONSIN

CITY           SKY/WX    TMP DP  RH WIND       PRES   REMARKS
ANTIGO         CLOUDY    11   4  73 NW7       30.40R WCI   1
SHAWANO        CLOUDY    18   5  56 NW12      30.46R WCI   5
OCONTO         MOCLDY    15   4  61 CALM      30.46R
STURGEON BAY   PTCLDY    12   1  62 N13       30.46R WCI  -3
GREEN BAY      CLOUDY    17   5  59 N12       30.47R WCI   4
MANITOWOC      NOT AVBL
APPLETON       NOT AVBL
CLINTONVILLE   CLOUDY    18   5  57 NW8       30.46R WCI   7
OSHKOSH        PTCLDY    15   4  61 NW8       30.45R WCI   4
$$

WIZ032>034-041-042-053>061-301200-
SOUTHWEST WISCONSIN

CITY           SKY/WX    TMP DP  RH WIND       PRES   REMARKS
LA CROSSE      CLEAR     11   5  77 N5        30.54S WCI   3
SPARTA         CLEAR     11   4  74 NW3       30.52S
VIROQUA        CLEAR     11   6  79 N7        30.47S WCI   0
BOSCOBEL       CLEAR     16   6  65 N7        30.53R WCI   6
PRAIRIE DU CHI CLEAR     17   9  70 NW5       30.53S WCI  10
PLATTEVILLE    CLEAR     17   9  72 NW9       30.48R WCI   5
$$

WIZ056-057-062-063-064-067-068-301200-
SOUTH CENTRAL WISCONSIN

CITY           SKY/WX    TMP DP  RH WIND       PRES   REMARKS
REEDSBURG      CLEAR     15   6  69 NW10      30.48R WCI   2
BARABOO/DELLS  CLEAR     14   6  70 NW6       30.47R WCI   5
LONE ROCK      NOT AVBL
MINERAL POINT  CLEAR     18  10  73 NW9       30.46R WCI   6
MADISON        CLEAR     15   7  70 NW5       30.47R WCI   8
MIDDLETON      CLEAR     17   8  67 NW5       30.47R WCI  10
WATERTOWN      CLEAR     16   6  65 N8        30.45R WCI   5
MONROE         CLEAR     18  10  73 NW6       30.45R WCI   9
JANESVILLE     CLEAR     19  10  68 NW7       30.45R WCI  10
$$

WIZ051-052-058>065-066-070>072-301200-
SOUTHEAST WISCONSIN

CITY           SKY/WX    TMP DP  RH WIND       PRES   REMARKS
MILWAUKEE      PTCLDY    20   9  62 NW12      30.44R WCI   8
WAUKESHA       CLEAR     16   7  67 NW6       30.44R WCI   7
MILWAUKEE/TIMM CLEAR     18   9  68 NW9       30.45R WCI   6
RACINE         CLEAR     20   9  62 N9        30.45R WCI   9
BURLINGTON     MOCLDY    19   7  59 N10G20    30.44R WCI   7
KENOSHA        CLEAR     20   9  62 NW6       30.43R WCI  12
FOND DU LAC    CLEAR     12   2  64 NW8       30.46R WCI   0
SHEBOYGAN      MOCLDY    16   7  67 N9        30.45R WCI   4
WEST BEND      CLEAR     16   9  73 NW3       30.43R
JUNEAU         CLEAR     14   5  68 NW5       30.46R WCI   6
$$

LSZ147-162-301200-
LAKE SUPERIOR

STATION/POSITION TIME  TEMP    WIND        PRES    WAVE
                       AIR SEA DIR/SP/G            HT/PER
                 (UTC) (F)     (DEG/KT/KT) (MB)    (FT/S)
DEVILS ISLAND    1000   12     290/  6/  8 1034.7F
PORT WING        1040   12     250/  7/ 13 1033.2F
SAXON HARBOR     1000   14      CALM  /  6 1032.5
$$

LMZ867-665-643>646-301200-
LAKE MICHIGAN

STATION/POSITION TIME  TEMP    WIND        PRES    WAVE
                       AIR SEA DIR/SP/G            HT/PER
                 (UTC) (F)     (DEG/KT/KT) (MB)    (FT/S)
NORTHPORT PIER   1009   16     310/ 18     1030.5R
SISTER BAY       1013   13     330/ 20/ 24   N/A
KEWAUNEE LAKESHO 1000   16     350/ 11/ 15 1029.8R
SHEBOYGAN LAKESH 1000   20     360/ 17/ 20 1031.7R
PORT WASHINGTON  1000   20     350/  3/  7 1031.2R
MILWAUKEE LAKESH 1000   22     330/ 10/ 16   N/A
KENOSHA   LAKESH 1000   23     330/ 14/ 18 1029.8R
$$

TC  - TEMPERATURE IN CELSIUS
VSB - VISIBILITY IN STATUTE MILES
WCI - WIND CHILL INDEX
HX  - HEAT INDEX




USA.gov is the U.S. government's official web portal to all federal, state and local government web resources and services.